Wilmington, NC

7:06 AM EST on November 25, 2017 (GMT -0500)
Wilmington International

Weather History for KILM - November, 2011

Change the Weather History Date:

Saturday, November 26, 2011

  Actual Average Record
Temperature  
Mean Temperature 55 °F 54 °F  
Max Temperature 74 °F 65 °F 80 °F (2001)
Min Temperature 35 °F 43 °F 16 °F (1950)
Degree Days  
Heating Degree Days 10 12  
Month to date heating degree days 192 223  
Since 1 July heating degree days 299 320  
Cooling Degree Days 0 0  
Month to date cooling degree days 23 23  
Year to date cooling degree days 2331 2037  
Growing Degree Days 4 (Base 50)    
Moisture  
Dew Point 44 °F    
Average Humidity 64    
Maximum Humidity 92    
Minimum Humidity 35    
Precipitation  
Precipitation 0.00 in 0.12 in 2.27 in (1992)
Month to date precipitation 2.10 2.82  
Year to date precipitation 42.50 53.52  
Snow  
Snow 0.00 in 0.00 in T in (1962)
Month to date snowfall 0.0 0.0  
Since 1 July snowfall 0.0 0.0  
Since 1 September snowfall 0.0  
Snow Depth 0.00 in    
Sea Level Pressure  
Sea Level Pressure 30.32 in    
Wind  
Wind Speed 2 mph (SSW)    
Max Wind Speed 14 mph    
Max Gust Speed 25 mph    
Visibility 10 miles    
Events      
T = Trace of Precipitation, MM = Missing Value Source: NWS Daily Summary

Daily Weather History Graph

Daily Weather History Graph

Search for Another Location

Airport or City:

Trip Planner

Search our weather history database for the weather conditions in past years. The results will help you decide how hot, cold, wet, or windy it might be!

Date:

Astronomy

Nov. 26, 2011 Rise Set
Actual Time 6:54 AM EST 5:02 PM EST
Civil Twilight 6:27 AM EST 5:29 PM EST
Nautical Twilight 5:56 AM EST 6:00 PM EST
Astronomical Twilight 5:26 AM EST 6:30 PM EST
Moon 8:21 AM EST (11/26) 6:34 PM EST (11/26)
Length of Visible Light 11h 02m
Length of Day
10h 08m
Waxing Crescent, 3% of the Moon is Illuminated
Nov 26
Waxing Crescent
Dec 2
First Quarter
Dec 10
Full
Dec 17
Last Quarter
Dec 24
New

Hourly Weather History & Observations

Time (EST) Temp. Dew Point Humidity Pressure Visibility Wind Dir Wind Speed Gust Speed Precip Events Conditions
12:53 AM 41.0 °F 37.9 °F 89% 30.34 in 9.0 mi Calm Calm - N/A   Clear
1:53 AM 39.0 °F 37.0 °F 93% 30.33 in 10.0 mi Calm Calm - N/A   Clear
2:53 AM 39.0 °F 36.0 °F 89% 30.33 in 10.0 mi Calm Calm - N/A   Clear
3:53 AM 37.9 °F 35.1 °F 89% 30.33 in 10.0 mi Calm Calm - N/A   Clear
4:53 AM 37.0 °F 34.0 °F 89% 30.33 in 10.0 mi Calm Calm - N/A   Clear
5:53 AM 36.0 °F 34.0 °F 93% 30.33 in 10.0 mi Calm Calm - N/A   Clear
6:53 AM 35.1 °F 33.1 °F 92% 30.35 in 9.0 mi Calm Calm - N/A   Clear
7:53 AM 39.9 °F 36.0 °F 86% 30.37 in 10.0 mi Calm Calm - N/A   Clear
8:53 AM 50.0 °F 46.0 °F 86% 30.38 in 10.0 mi Calm Calm - N/A   Clear
9:53 AM 62.1 °F 48.9 °F 62% 30.39 in 10.0 mi Calm Calm - N/A   Clear
10:53 AM 68.0 °F 43.0 °F 40% 30.37 in 10.0 mi Variable 3.5 mph - N/A   Clear
11:53 AM 71.1 °F 46.0 °F 41% 30.34 in 10.0 mi Variable 5.8 mph - N/A   Clear
12:53 PM 72.0 °F 46.0 °F 40% 30.31 in 10.0 mi West 9.2 mph - N/A   Clear
1:53 PM 73.0 °F 45.0 °F 37% 30.28 in 10.0 mi West 8.1 mph - N/A   Clear
2:53 PM 72.0 °F 46.0 °F 40% 30.27 in 10.0 mi SSW 3.5 mph - N/A   Clear
3:53 PM 69.1 °F 50.0 °F 51% 30.28 in 10.0 mi South 5.8 mph - N/A   Clear
4:53 PM 64.0 °F 51.1 °F 63% 30.28 in 10.0 mi South 3.5 mph - N/A   Clear
5:53 PM 60.1 °F 48.9 °F 67% 30.28 in 10.0 mi South 6.9 mph - N/A   Clear
6:53 PM 60.1 °F 50.0 °F 69% 30.30 in 10.0 mi SSE 4.6 mph - N/A   Clear
7:53 PM 53.1 °F 48.9 °F 86% 30.30 in 10.0 mi Calm Calm - N/A   Clear
8:53 PM 52.0 °F 48.9 °F 89% 30.30 in 10.0 mi Calm Calm - N/A   Clear
9:53 PM 54.0 °F 48.9 °F 83% 30.31 in 10.0 mi Calm Calm - N/A   Mostly Cloudy
10:53 PM 53.1 °F 50.0 °F 89% 30.30 in 10.0 mi Calm Calm - N/A   Overcast
11:53 PM 51.1 °F 48.0 °F 89% 30.28 in 10.0 mi Calm Calm - N/A   Overcast